CW1490 Weather Reports


Display with metric or nautical units.
time (UTC)temp
F
wind
direction
speed
MPH
gust
MPH
rain 1hr
in
rain 24hr
in
rain mn
in
humidity
%
barometer
mb
20140930194631 63 259 0.0 3.0 0.00 0.00 0.00 84 1014.8
20140930193331 63 217 0.0 2.0 0.00 0.00 0.00 84 1014.8
20140930191630 63 237 0.0 5.0 0.00 0.00 0.00 83 1014.9
20140930190130 63 222 2.0 4.0 0.00 0.00 0.00 82 1014.9
20140930184629 64 201 0.0 4.0 0.00 0.00 0.00 82 1014.8
20140930183128 64 236 0.0 1.0 0.00 0.00 0.00 81 1014.7
20140930181627 64 234 2.0 3.0 0.00 0.00 0.00 81 1014.8
20140930180125 64 259 0.0 4.0 0.00 0.00 0.00 81 1014.8
20140930174624 64 240 2.0 7.0 0.00 0.00 0.00 80 1014.9
20140930173123 64 259 2.0 4.0 0.00 0.00 0.00 81 1015.1
20140930171622 63 209 1.0 3.0 0.00 0.00 0.00 81 1015.2
20140930170121 63 204 0.0 1.0 0.00 0.00 0.00 80 1015.2
20140930164618 63 75 0.0 0.0 0.00 0.00 0.00 81 1015.3
20140930163118 63 36 0.0 0.0 0.00 0.00 0.00 82 1015.3
20140930161617 63 30 1.0 3.0 0.00 0.00 0.00 81 1015.4
20140930160116 63 24 0.0 0.0 0.00 0.00 0.00 81 1015.4
20140930154614 62 14 0.0 0.0 0.00 0.00 0.00 81 1015.5
20140930153113 62 59 0.0 1.0 0.00 0.00 0.00 83 1015.6
20140930151611 62 66 0.0 3.0 0.00 0.00 0.00 83 1015.7
20140930150109 61 50 1.0 3.0 0.00 0.00 0.00 85 1015.7
20140930144606 60 48 2.0 5.0 0.00 0.00 0.00 86 1015.7
20140930143104 60 61 2.0 5.0 0.00 0.00 0.00 88 1015.8
20140930141600 59 55 0.0 4.0 0.00 0.00 0.00 90 1016.1
20140930140058 59 3 0.0 0.0 0.00 0.00 0.00 90 1016.2
20140930134555 58 1 0.0 3.0 0.00 0.00 0.00 92 1016.2
20140930133054 58 41 1.0 3.0 0.00 0.00 0.00 92 1016.4
20140930131552 58 24 2.0 3.0 0.00 0.00 0.00 92 1016.5
20140930130051 57 263 0.0 0.0 0.00 0.00 0.00 93 1016.4
20140930124550 57 263 0.0 0.0 0.00 0.00 0.00 93 1016.5
20140930123047 57 263 0.0 2.0 0.00 0.00 0.00 92 1016.5
20140930121746 57 244 2.0 3.0 0.00 0.00 0.00 92 1016.6
20140930120047 57 149 0.0 0.0 0.00 0.00 0.00 92 1016.5
20140930114542 57 149 0.0 2.0 0.00 0.00 0.00 92 1016.4
20140930113040 57 66 0.0 0.0 0.00 0.00 0.00 92 1016.2
20140930111538 57 41 0.0 0.0 0.00 0.00 0.00 92 1016.2
20140930110037 57 41 0.0 0.0 0.00 0.00 0.00 92 1015.9
20140930104535 57 41 0.0 0.0 0.00 0.00 0.00 92 1015.8
20140930103035 57 41 0.0 0.0 0.00 0.00 0.00 92 1015.7
20140930101534 57 41 0.0 0.0 0.00 0.00 0.00 91 1015.5
20140930100033 57 41 0.0 0.0 0.00 0.00 0.00 91 1015.4
20140930094533 57 41 0.0 0.0 0.00 0.00 0.00 91 1015.3
20140930093032 57 41 0.0 0.0 0.00 0.00 0.00 91 1015.3
20140930091531 57 41 0.0 0.0 0.00 0.00 0.00 90 1015.2
20140930090030 57 41 0.0 0.0 0.00 0.00 0.00 90 1015.2
20140930084529 57 41 0.0 0.0 0.00 0.00 0.00 90 1015.2
20140930083028 57 41 0.0 0.0 0.00 0.00 0.00 90 1015.3
20140930081527 57 41 0.0 3.0 0.00 0.00 0.00 89 1015.4
20140930080026 58 41 0.0 2.0 0.00 0.00 0.00 89 1015.4
20140930074527 58 42 0.0 4.0 0.00 0.00 0.00 89 1015.3
20140930073024 58 80 0.0 0.0 0.00 0.00 0.00 89 1015.3
20140930071523 58 80 0.0 2.0 0.00 0.00 0.00 88 1015.4
20140930070026 58 70 1.0 7.0 0.00 0.00 0.00 88 1015.3
20140930064521 58 31 3.0 5.0 0.00 0.00 0.00 88 1015.4
20140930063021 58 85 0.0 0.0 0.00 0.00 0.00 88 1015.7
20140930061519 58 60 0.0 0.0 0.00 0.00 0.00 88 1015.7
20140930060018 58 60 0.0 3.0 0.00 0.00 0.00 88 1015.6
20140930054517 58 104 0.0 2.0 0.00 0.00 0.00 88 1015.6
20140930053017 58 47 0.0 0.0 0.00 0.00 0.00 89 1015.6
20140930051521 58 47 0.0 1.0 0.00 0.00 0.00 88 1015.6
20140930050114 59 43 0.0 5.0 0.00 0.00 0.00 88 1015.2
20140930044511 59 63 1.0 4.0 0.00 0.00 0.00 87 1015.4
20140930043010 59 111 0.0 4.0 0.00 0.00 0.00 87 1015.5
20140930041508 59 56 0.0 5.0 0.00 0.00 0.00 86 1015.5
20140930040006 60 239 1.0 6.0 0.00 0.00 0.00 86 1015.7
20140930034505 60 122 1.0 5.0 0.00 0.00 0.00 86 1015.5
20140930033005 60 125 0.0 4.0 0.00 0.00 0.00 86 1015.6
20140930031503 60 126 0.0 3.0 0.00 0.00 0.00 85 1015.6
20140930030006 61 36 1.0 10.0 0.00 0.00 0.00 85 1015.6
20140930024501 61 92 0.0 2.0 0.00 0.00 0.00 87 1015.7
20140930023000 61 59 0.0 3.0 0.00 0.00 0.00 86 1015.4
20140930021459 61 131 2.0 8.0 0.00 0.00 0.00 85 1015.4
20140930015959 62 89 1.0 5.0 0.00 0.00 0.00 86 1015.2
20140930014458 62 107 0.0 5.0 0.00 0.00 0.00 85 1015.0
20140930012957 63 33 3.0 9.0 0.00 0.00 0.00 84 1015.0
20140930011457 64 146 3.0 10.0 0.00 0.00 0.00 83 1014.9
20140930005956 64 66 0.0 5.0 0.00 0.00 0.00 83 1014.7
20140930004456 65 159 2.0 5.0 0.00 0.00 0.00 83 1014.8
20140930002955 65 332 0.0 7.0 0.00 0.00 0.00 82 1014.4
20140930001455 66 137 2.0 6.0 0.00 0.00 0.00 83 1014.2
20140929235954 66 78 0.0 1.0 0.00 0.00 0.00 83 1014.0
20140929234453 66 72 3.0 7.0 0.00 0.00 0.00 84 1013.9
20140929232953 66 307 0.0 0.0 0.00 0.00 0.00 88 1013.5
20140929231452 67 307 0.0 0.0 0.00 0.00 0.00 89 1013.4
20140929224450 67 307 0.0 0.0 0.00 0.00 0.00 87 1013.2
20140929222950 68 307 0.0 0.0 0.00 0.00 0.00 85 1013.0
20140929221450 69 306 0.0 3.0 0.00 0.00 0.00 84 1012.8
20140929215949 70 223 0.0 0.0 0.00 0.00 0.00 84 1012.8
20140929214549 70 223 0.0 0.0 0.00 0.00 0.00 83 1012.8
20140929212949 71 223 0.0 0.0 0.00 0.00 0.00 81 1012.8
20140929211447 72 223 0.0 0.0 0.00 0.00 0.00 80 1012.9
20140929205947 73 223 0.0 0.0 0.00 0.00 0.00 79 1012.8
20140929204446 73 223 0.0 0.0 0.00 0.00 0.00 76 1012.8
20140929202946 74 223 0.0 3.0 0.00 0.00 0.00 74 1012.8
20140929201445 74 222 0.0 2.0 0.00 0.00 0.00 73 1012.7
20140929195946 74 222 2.0 4.0 0.00 0.00 0.00 72 1012.7